Flag for Germany Weather past 2 weeks in Bielefeld, North Rhine-Westphalia, Germany

Now
73 °F

Sunny.


Feels Like: 77 °F
Forecast: 58 / 85 °F
Wind: 2 mph from South

Location: Bad Lippspringe

Current Time: Jun 30, 2015 at 12:33:17 PM

Latest Report: Jun 30, 2015 at 12:00 PM


Visibility: 19 mi

Pressure: 30.20 "Hg

Humidity: 50%

Dew point: 53 °F

Location of BielefeldLocation

Historic Weather in Bielefeld — Graph

°F

Bielefeld temperature yesterday

Maximum temperature yesterday: 77 °F (at 4:00 PM)
Minimum temperature yesterday: 59 °F (at 5:00 AM)
Average temperature yesterday: 69 °F

Past Weeks' High & Low Weather Summary

 TemperatureHumidityPressure
High77 °F (Jun 26, 4:00 PM)100% (Jun 18, 6:00 AM)30.32 "Hg (Jun 18, 6:00 AM)
Low37 °F (Jun 17, 4:00 AM)36% (Jun 15, 6:00 PM)29.67 "Hg (Jun 22, 11:00 PM)
Average59 °F74%30.07 "Hg
* Reported Jun 15 11:00 AM — Jun 30 11:00 AM, Bielefeld, Weather by CustomWeather, © 2015

Note: Actual official high and low records may vary slightly from our data, if they occured in-between our weather recording intervals... More about our weather records

Advertising

Bielefeld weather history for previous 24 hours

 ConditionsComfort  
Time TempWeatherWind HumidityBarometerVisibility
11:00 AM
Tue, Jun 30
71 °FSunny.2 mph52%30.20 "Hg16 mi
10:00 AM69 °FSunny.2 mph55%30.21 "Hg15 mi
9:00 AM67 °FScattered clouds.1 mph62%30.21 "Hg17 mi
8:00 AM64 °FPassing clouds.No wind72%30.21 "Hg14 mi
7:00 AM58 °FSunny.1 mph89%30.21 "Hg9 mi
6:00 AM55 °FPartly sunny.1 mph97%30.20 "Hg6 mi
5:00 AM54 °FClear.1 mph97%30.20 "Hg5 mi
4:00 AM58 °FClear.2 mph93%30.19 "Hg7 mi
3:00 AM60 °FOvercast.2 mph89%30.19 "Hg8 mi
2:00 AM62 °FOvercast.1 mph78%30.19 "Hg18 mi
1:00 AM62 °FPassing clouds.1 mph82%30.20 "Hg12 mi
12:00 AM60 °FPassing clouds.1 mph89%30.19 "Hg13 mi
11:00 PM
Mon, Jun 29
62 °FPassing clouds.No wind83%30.19 "Hg17 mi
10:00 PM64 °FPassing clouds.1 mph76%30.17 "Hg25 mi
9:00 PM71 °FSunny.2 mph51%30.16 "Hg28 mi
8:00 PM74 °FSunny.5 mph43%30.14 "Hg8 mi
7:00 PM75 °FPassing clouds.5 mph43%30.14 "Hg12 mi
6:00 PM75 °FPassing clouds.6 mph42%30.13 "Hg7 mi
5:00 PM76 °FSunny.6 mph42%30.13 "Hg7 mi
4:00 PM77 °FPassing clouds.5 mph45%30.12 "Hg7 mi
3:00 PM76 °FScattered clouds.5 mph49%30.12 "Hg7 mi
2:00 PM75 °FScattered clouds.5 mph49%30.12 "Hg9 mi
1:00 PM74 °FScattered clouds.5 mph56%30.12 "Hg9 mi
12:00 PM74 °FPassing clouds.3 mph56%30.12 "Hg8 mi
Weather by CustomWeather, © 2015

See weather overviewHow to use our weather pages